History Data

Date (GMT-7:00) CPM ACPM uSv/h Latitude Longitude Altitude CO CO2 TVOC HCHO Air Pressure Temperature Humidity Type
2026-02-12 14:24:00 13 17.40 0.065000 41.649648 41.62752893 0 0 0 0 0 0 0 0 STD5.60
2026-02-12 14:18:57 15 16.90 0.075000 41.649648 41.62752893 0 0 0 0 0 0 0 0 STD5.60
2026-02-12 14:13:55 21 14.80 0.105000 41.649648 41.62752893 0 0 0 0 0 0 0 0 STD5.60
2026-02-12 14:08:53 13 15.80 0.065000 41.649648 41.62752893 0 0 0 0 0 0 0 0 STD5.60
2026-02-12 14:03:50 19 18.70 0.095000 41.649648 41.62752893 0 0 0 0 0 0 0 0 STD5.60
2026-02-12 13:58:48 26 19.10 0.130000 41.649648 41.62752893 0 0 0 0 0 0 0 0 STD5.60
2026-02-12 13:53:46 18 20.20 0.090000 41.649648 41.62752893 0 0 0 0 0 0 0 0 STD5.60
2026-02-12 13:48:44 17 19.00 0.085000 41.649648 41.62752893 0 0 0 0 0 0 0 0 STD5.60
2026-02-12 13:43:42 22 17.80 0.110000 41.649648 41.62752893 0 0 0 0 0 0 0 0 STD5.60
2026-02-12 13:38:38 18 19.10 0.090000 41.649648 41.62752893 0 0 0 0 0 0 0 0 STD5.60
2026-02-12 13:33:36 25 19.00 0.125000 41.649648 41.62752893 0 0 0 0 0 0 0 0 STD5.60
2026-02-12 13:28:34 24 18.30 0.120000 41.649648 41.62752893 0 0 0 0 0 0 0 0 STD5.60
2026-02-12 13:23:32 22 16.70 0.110000 41.649648 41.62752893 0 0 0 0 0 0 0 0 STD5.60
2026-02-12 13:18:29 13 16.80 0.065000 41.649648 41.62752893 0 0 0 0 0 0 0 0 STD5.60
2026-02-12 13:13:27 16 18.80 0.080000 41.649648 41.62752893 0 0 0 0 0 0 0 0 STD5.60
2026-02-12 13:08:25 23 19.80 0.115000 41.649648 41.62752893 0 0 0 0 0 0 0 0 STD5.60
2026-02-12 13:03:23 17 18.70 0.085000 41.649648 41.62752893 0 0 0 0 0 0 0 0 STD5.60
2026-02-12 12:58:21 19 16.10 0.095000 41.649648 41.62752893 0 0 0 0 0 0 0 0 STD5.60
2026-02-12 12:53:19 18 16.10 0.090000 41.649648 41.62752893 0 0 0 0 0 0 0 0 STD5.60
2026-02-12 12:48:16 13 12.40 0.065000 41.649648 41.62752893 0 0 0 0 0 0 0 0 STD5.60
2026-02-12 12:43:16 21 3.60 0.105000 41.649648 41.62752893 0 0 0 0 0 0 0 0 STD5.60
2026-02-12 12:38:08 18 18.10 0.090000 41.649648 41.62752893 0 0 0 0 0 0 0 0 STD5.60
2026-02-12 12:33:06 20 18.10 0.100000 41.649648 41.62752893 0 0 0 0 0 0 0 0 STD5.60
2026-02-12 12:28:04 13 18.00 0.065000 41.649648 41.62752893 0 0 0 0 0 0 0 0 STD5.60
2026-02-12 12:23:02 21 20.00 0.105000 41.649648 41.62752893 0 0 0 0 0 0 0 0 STD5.60
2026-02-12 12:17:59 16 22.60 0.080000 41.649648 41.62752893 0 0 0 0 0 0 0 0 STD5.60
2026-02-12 12:12:57 18 20.80 0.090000 41.649648 41.62752893 0 0 0 0 0 0 0 0 STD5.60
2026-02-12 12:07:55 22 18.40 0.110000 41.649648 41.62752893 0 0 0 0 0 0 0 0 STD5.60
2026-02-12 12:02:53 13 19.80 0.065000 41.649648 41.62752893 0 0 0 0 0 0 0 0 STD5.60
2026-02-12 11:57:52 24 20.30 0.120000 41.649648 41.62752893 0 0 0 0 0 0 0 0 STD5.60
2026-02-12 11:52:49 20 18.10 0.100000 41.649648 41.62752893 0 0 0 0 0 0 0 0 STD5.60
2026-02-12 11:47:47 16 18.90 0.080000 41.649648 41.62752893 0 0 0 0 0 0 0 0 STD5.60
2026-02-12 11:42:45 30 18.70 0.150000 41.649648 41.62752893 0 0 0 0 0 0 0 0 STD5.60
2026-02-12 11:37:29 12 18.20 0.060000 41.649648 41.62752893 0 0 0 0 0 0 0 0 STD5.60
2026-02-12 11:32:27 24 18.20 0.120000 41.649648 41.62752893 0 0 0 0 0 0 0 0 STD5.60
2026-02-12 11:27:25 17 17.30 0.085000 41.649648 41.62752893 0 0 0 0 0 0 0 0 STD5.60
2026-02-12 11:22:24 17 15.60 0.085000 41.649648 41.62752893 0 0 0 0 0 0 0 0 STD5.60
2026-02-12 11:17:21 17 16.30 0.085000 41.649648 41.62752893 0 0 0 0 0 0 0 0 STD5.60
2026-02-12 11:12:21 23 18.90 0.115000 41.649648 41.62752893 0 0 0 0 0 0 0 0 STD5.60
2026-02-12 11:07:17 20 18.90 0.100000 41.649648 41.62752893 0 0 0 0 0 0 0 0 STD5.60
2026-02-12 11:02:15 19 19.00 0.095000 41.649648 41.62752893 0 0 0 0 0 0 0 0 STD5.60
2026-02-12 10:57:13 19 18.30 0.095000 41.649648 41.62752893 0 0 0 0 0 0 0 0 STD5.60
2026-02-12 10:52:13 22 18.20 0.110000 41.649648 41.62752893 0 0 0 0 0 0 0 0 STD5.60
2026-02-12 10:47:09 17 18.90 0.085000 41.649648 41.62752893 0 0 0 0 0 0 0 0 STD5.60
2026-02-12 10:42:07 20 18.00 0.100000 41.649648 41.62752893 0 0 0 0 0 0 0 0 STD5.60
2026-02-12 10:37:03 21 16.30 0.105000 41.649648 41.62752893 0 0 0 0 0 0 0 0 STD5.60
2026-02-12 10:32:01 14 15.90 0.070000 41.649648 41.62752893 0 0 0 0 0 0 0 0 STD5.60
2026-02-12 10:26:59 11 17.20 0.055000 41.649648 41.62752893 0 0 0 0 0 0 0 0 STD5.60
2026-02-12 10:21:58 20 18.30 0.100000 41.649648 41.62752893 0 0 0 0 0 0 0 0 STD5.60
2026-02-12 10:16:55 20 17.50 0.100000 41.649648 41.62752893 0 0 0 0 0 0 0 0 STD5.60
2026-02-12 10:11:53 20 17.50 0.100000 41.649648 41.62752893 0 0 0 0 0 0 0 0 STD5.60
2026-02-12 10:06:51 17 16.90 0.085000 41.649648 41.62752893 0 0 0 0 0 0 0 0 STD5.60
2026-02-12 10:01:48 14 17.10 0.070000 41.649648 41.62752893 0 0 0 0 0 0 0 0 STD5.60
2026-02-12 09:56:46 25 18.50 0.125000 41.649648 41.62752893 0 0 0 0 0 0 0 0 STD5.60
2026-02-12 09:51:44 20 17.00 0.100000 41.649648 41.62752893 0 0 0 0 0 0 0 0 STD5.60
2026-02-12 09:46:42 16 16.50 0.080000 41.649648 41.62752893 0 0 0 0 0 0 0 0 STD5.60
2026-02-12 09:41:41 18 16.00 0.090000 41.649648 41.62752893 0 0 0 0 0 0 0 0 STD5.60
2026-02-12 09:36:36 14 14.80 0.070000 41.649648 41.62752893 0 0 0 0 0 0 0 0 STD5.60
2026-02-12 09:31:34 11 17.30 0.055000 41.649648 41.62752893 0 0 0 0 0 0 0 0 STD5.60
2026-02-12 09:26:32 16 19.30 0.080000 41.649648 41.62752893 0 0 0 0 0 0 0 0 STD5.60
2026-02-12 09:21:30 19 17.90 0.095000 41.649648 41.62752893 0 0 0 0 0 0 0 0 STD5.60
2026-02-12 09:16:28 19 18.50 0.095000 41.649648 41.62752893 0 0 0 0 0 0 0 0 STD5.60
2026-02-12 09:11:25 11 17.70 0.055000 41.649648 41.62752893 0 0 0 0 0 0 0 0 STD5.60
2026-02-12 09:06:23 18 17.40 0.090000 41.649648 41.62752893 0 0 0 0 0 0 0 0 STD5.60
2026-02-12 09:01:22 21 18.30 0.105000 41.649648 41.62752893 0 0 0 0 0 0 0 0 STD5.60
2026-02-12 08:56:20 16 18.30 0.080000 41.649648 41.62752893 0 0 0 0 0 0 0 0 STD5.60
2026-02-12 08:51:18 14 16.80 0.070000 41.649648 41.62752893 0 0 0 0 0 0 0 0 STD5.60
2026-02-12 08:46:15 14 14.90 0.070000 41.649648 41.62752893 0 0 0 0 0 0 0 0 STD5.60
2026-02-12 08:41:13 18 17.00 0.090000 41.649648 41.62752893 0 0 0 0 0 0 0 0 STD5.60
2026-02-12 08:36:08 20 16.80 0.100000 41.649648 41.62752893 0 0 0 0 0 0 0 0 STD5.60
2026-02-12 08:31:06 18 16.10 0.090000 41.649648 41.62752893 0 0 0 0 0 0 0 0 STD5.60
2026-02-12 08:26:04 17 19.00 0.085000 41.649648 41.62752893 0 0 0 0 0 0 0 0 STD5.60
2026-02-12 08:21:02 24 20.10 0.120000 41.649648 41.62752893 0 0 0 0 0 0 0 0 STD5.60
2026-02-12 08:16:00 19 17.60 0.095000 41.649648 41.62752893 0 0 0 0 0 0 0 0 STD5.60
2026-02-12 08:10:58 13 17.20 0.065000 41.649648 41.62752893 0 0 0 0 0 0 0 0 STD5.60
2026-02-12 08:05:56 21 18.10 0.105000 41.649648 41.62752893 0 0 0 0 0 0 0 0 STD5.60
2026-02-12 08:00:54 19 16.30 0.095000 41.649648 41.62752893 0 0 0 0 0 0 0 0 STD5.60
2026-02-12 07:55:52 12 16.00 0.060000 41.649648 41.62752893 0 0 0 0 0 0 0 0 STD5.60
2026-02-12 07:50:50 12 17.30 0.060000 41.649648 41.62752893 0 0 0 0 0 0 0 0 STD5.60
2026-02-12 07:45:48 19 17.60 0.095000 41.649648 41.62752893 0 0 0 0 0 0 0 0 STD5.60
2026-02-12 07:40:46 18 18.00 0.090000 41.649648 41.62752893 0 0 0 0 0 0 0 0 STD5.60
2026-02-12 07:35:42 13 17.60 0.065000 41.649648 41.62752893 0 0 0 0 0 0 0 0 STD5.60
2026-02-12 07:30:40 18 17.10 0.090000 41.649648 41.62752893 0 0 0 0 0 0 0 0 STD5.60
2026-02-12 07:25:38 21 19.30 0.105000 41.649648 41.62752893 0 0 0 0 0 0 0 0 STD5.60
2026-02-12 07:20:36 25 19.70 0.125000 41.649648 41.62752893 0 0 0 0 0 0 0 0 STD5.60
2026-02-12 07:15:34 20 18.70 0.100000 41.649648 41.62752893 0 0 0 0 0 0 0 0 STD5.60
2026-02-12 07:10:32 13 18.20 0.065000 41.649648 41.62752893 0 0 0 0 0 0 0 0 STD5.60
2026-02-12 07:05:30 16 17.20 0.080000 41.649648 41.62752893 0 0 0 0 0 0 0 0 STD5.60
2026-02-12 07:00:28 19 17.40 0.095000 41.649648 41.62752893 0 0 0 0 0 0 0 0 STD5.60
2026-02-12 06:55:29 19 18.00 0.095000 41.649648 41.62752893 0 0 0 0 0 0 0 0 STD5.60
2026-02-12 06:50:24 20 18.30 0.100000 41.649648 41.62752893 0 0 0 0 0 0 0 0 STD5.60
2026-02-12 06:45:22 26 17.00 0.130000 41.649648 41.62752893 0 0 0 0 0 0 0 0 STD5.60
2026-02-12 06:40:20 17 16.30 0.085000 41.649648 41.62752893 0 0 0 0 0 0 0 0 STD5.60
2026-02-12 06:35:15 14 18.70 0.070000 41.649648 41.62752893 0 0 0 0 0 0 0 0 STD5.60
2026-02-12 06:30:13 20 19.00 0.100000 41.649648 41.62752893 0 0 0 0 0 0 0 0 STD5.60
2026-02-12 06:25:11 15 18.40 0.075000 41.649648 41.62752893 0 0 0 0 0 0 0 0 STD5.60
2026-02-12 06:20:09 15 18.00 0.075000 41.649648 41.62752893 0 0 0 0 0 0 0 0 STD5.60
2026-02-12 06:15:07 15 17.20 0.075000 41.649648 41.62752893 0 0 0 0 0 0 0 0 STD5.60
2026-02-12 06:10:05 10 16.80 0.050000 41.649648 41.62752893 0 0 0 0 0 0 0 0 STD5.60
2026-02-12 06:05:03 19 18.70 0.095000 41.649648 41.62752893 0 0 0 0 0 0 0 0 STD5.60
2026-02-12 06:00:02 23 19.30 0.115000 41.649648 41.62752893 0 0 0 0 0 0 0 0 STD5.60
2026-02-12 05:54:59 15 18.10 0.075000 41.649648 41.62752893 0 0 0 0 0 0 0 0 STD5.60
2026-02-12 05:49:57 18 19.30 0.090000 41.649648 41.62752893 0 0 0 0 0 0 0 0 STD5.60
2026-02-12 05:44:55 17 17.00 0.085000 41.649648 41.62752893 0 0 0 0 0 0 0 0 STD5.60
2026-02-12 05:39:53 11 16.60 0.055000 41.649648 41.62752893 0 0 0 0 0 0 0 0 STD5.60
2026-02-12 05:34:49 11 19.00 0.055000 41.649648 41.62752893 0 0 0 0 0 0 0 0 STD5.60
2026-02-12 05:29:47 23 17.80 0.115000 41.649648 41.62752893 0 0 0 0 0 0 0 0 STD5.60
2026-02-12 05:24:44 19 15.80 0.095000 41.649648 41.62752893 0 0 0 0 0 0 0 0 STD5.60
2026-02-12 05:19:43 23 17.20 0.115000 41.649648 41.62752893 0 0 0 0 0 0 0 0 STD5.60
2026-02-12 05:14:40 11 18.40 0.055000 41.649648 41.62752893 0 0 0 0 0 0 0 0 STD5.60
2026-02-12 05:09:39 18 16.60 0.090000 41.649648 41.62752893 0 0 0 0 0 0 0 0 STD5.60
2026-02-12 05:04:36 18 17.90 0.090000 41.649648 41.62752893 0 0 0 0 0 0 0 0 STD5.60
2026-02-12 04:59:34 15 16.80 0.075000 41.649648 41.62752893 0 0 0 0 0 0 0 0 STD5.60
2026-02-12 04:54:32 14 16.90 0.070000 41.649648 41.62752893 0 0 0 0 0 0 0 0 STD5.60
2026-02-12 04:49:30 27 19.00 0.135000 41.649648 41.62752893 0 0 0 0 0 0 0 0 STD5.60
2026-02-12 04:44:28 17 18.10 0.085000 41.649648 41.62752893 0 0 0 0 0 0 0 0 STD5.60
2026-02-12 04:39:27 16 19.20 0.080000 41.649648 41.62752893 0 0 0 0 0 0 0 0 STD5.60
2026-02-12 04:34:22 27 19.50 0.135000 41.649648 41.62752893 0 0 0 0 0 0 0 0 STD5.60
2026-02-12 04:29:20 15 17.70 0.075000 41.649648 41.62752893 0 0 0 0 0 0 0 0 STD5.60
2026-02-12 04:24:17 18 20.00 0.090000 41.649648 41.62752893 0 0 0 0 0 0 0 0 STD5.60
2026-02-12 04:19:16 21 21.10 0.105000 41.649648 41.62752893 0 0 0 0 0 0 0 0 STD5.60
2026-02-12 04:14:14 16 17.80 0.080000 41.649648 41.62752893 0 0 0 0 0 0 0 0 STD5.60
2026-02-12 04:09:11 16 17.00 0.080000 41.649648 41.62752893 0 0 0 0 0 0 0 0 STD5.60
2026-02-12 04:04:09 18 17.80 0.090000 41.649648 41.62752893 0 0 0 0 0 0 0 0 STD5.60
2026-02-12 03:59:07 18 18.30 0.090000 41.649648 41.62752893 0 0 0 0 0 0 0 0 STD5.60
2026-02-12 03:54:05 21 19.20 0.105000 41.649648 41.62752893 0 0 0 0 0 0 0 0 STD5.60
2026-02-12 03:49:03 20 19.40 0.100000 41.649648 41.62752893 0 0 0 0 0 0 0 0 STD5.60
2026-02-12 03:44:01 24 20.70 0.120000 41.649648 41.62752893 0 0 0 0 0 0 0 0 STD5.60
2026-02-12 03:38:59 27 19.10 0.135000 41.649648 41.62752893 0 0 0 0 0 0 0 0 STD5.60
2026-02-12 03:33:55 21 16.70 0.105000 41.649648 41.62752893 0 0 0 0 0 0 0 0 STD5.60
2026-02-12 03:28:53 12 15.60 0.060000 41.649648 41.62752893 0 0 0 0 0 0 0 0 STD5.60
2026-02-12 03:23:51 19 16.70 0.095000 41.649648 41.62752893 0 0 0 0 0 0 0 0 STD5.60
2026-02-12 03:18:49 28 19.00 0.140000 41.649648 41.62752893 0 0 0 0 0 0 0 0 STD5.60
2026-02-12 03:13:47 23 19.40 0.115000 41.649648 41.62752893 0 0 0 0 0 0 0 0 STD5.60
2026-02-12 03:08:45 20 19.40 0.100000 41.649648 41.62752893 0 0 0 0 0 0 0 0 STD5.60
2026-02-12 03:03:43 18 19.10 0.090000 41.649648 41.62752893 0 0 0 0 0 0 0 0 STD5.60
2026-02-12 02:58:41 23 17.40 0.115000 41.649648 41.62752893 0 0 0 0 0 0 0 0 STD5.60
2026-02-12 02:53:39 14 17.30 0.070000 41.649648 41.62752893 0 0 0 0 0 0 0 0 STD5.60
2026-02-12 02:48:37 18 16.70 0.090000 41.649648 41.62752893 0 0 0 0 0 0 0 0 STD5.60
2026-02-12 02:43:35 10 16.90 0.050000 41.649648 41.62752893 0 0 0 0 0 0 0 0 STD5.60
2026-02-12 02:38:33 19 18.80 0.095000 41.649648 41.62752893 0 0 0 0 0 0 0 0 STD5.60
2026-02-12 02:33:30 17 17.10 0.085000 41.649648 41.62752893 0 0 0 0 0 0 0 0 STD5.60
2026-02-12 02:28:27 22 15.70 0.110000 41.649648 41.62752893 0 0 0 0 0 0 0 0 STD5.60
2026-02-12 02:23:25 13 16.80 0.065000 41.649648 41.62752893 0 0 0 0 0 0 0 0 STD5.60
2026-02-12 02:18:24 24 17.60 0.120000 41.649648 41.62752893 0 0 0 0 0 0 0 0 STD5.60
2026-02-12 02:13:22 19 17.50 0.095000 41.649648 41.62752893 0 0 0 0 0 0 0 0 STD5.60
2026-02-12 02:08:19 13 18.50 0.065000 41.649648 41.62752893 0 0 0 0 0 0 0 0 STD5.60
2026-02-12 02:03:17 16 17.10 0.080000 41.649648 41.62752893 0 0 0 0 0 0 0 0 STD5.60
2026-02-12 01:58:15 16 19.80 0.080000 41.649648 41.62752893 0 0 0 0 0 0 0 0 STD5.60
2026-02-12 01:53:13 15 19.50 0.075000 41.649648 41.62752893 0 0 0 0 0 0 0 0 STD5.60
2026-02-12 01:48:11 20 16.30 0.100000 41.649648 41.62752893 0 0 0 0 0 0 0 0 STD5.60
2026-02-12 01:43:09 16 17.70 0.080000 41.649648 41.62752893 0 0 0 0 0 0 0 0 STD5.60
2026-02-12 01:38:09 15 19.10 0.075000 41.649648 41.62752893 0 0 0 0 0 0 0 0 STD5.60
2026-02-12 01:33:03 17 18.00 0.085000 41.649648 41.62752893 0 0 0 0 0 0 0 0 STD5.60
2026-02-12 01:28:01 18 16.30 0.090000 41.649648 41.62752893 0 0 0 0 0 0 0 0 STD5.60
2026-02-12 01:22:59 10 16.30 0.050000 41.649648 41.62752893 0 0 0 0 0 0 0 0 STD5.60
2026-02-12 01:17:57 13 18.00 0.065000 41.649648 41.62752893 0 0 0 0 0 0 0 0 STD5.60
2026-02-12 01:12:55 21 19.90 0.105000 41.649648 41.62752893 0 0 0 0 0 0 0 0 STD5.60
2026-02-12 01:07:53 13 19.40 0.065000 41.649648 41.62752893 0 0 0 0 0 0 0 0 STD5.60
2026-02-12 01:02:51 16 18.60 0.080000 41.649648 41.62752893 0 0 0 0 0 0 0 0 STD5.60
2026-02-12 00:57:48 14 18.30 0.070000 41.649648 41.62752893 0 0 0 0 0 0 0 0 STD5.60
2026-02-12 00:52:47 15 19.00 0.075000 41.649648 41.62752893 0 0 0 0 0 0 0 0 STD5.60
2026-02-12 00:47:44 13 19.40 0.065000 41.649648 41.62752893 0 0 0 0 0 0 0 0 STD5.60
2026-02-12 00:42:42 19 20.30 0.095000 41.649648 41.62752893 0 0 0 0 0 0 0 0 STD5.60
2026-02-12 00:37:38 17 19.10 0.085000 41.649648 41.62752893 0 0 0 0 0 0 0 0 STD5.60
2026-02-12 00:32:36 12 16.90 0.060000 41.649648 41.62752893 0 0 0 0 0 0 0 0 STD5.60
2026-02-12 00:27:34 17 16.50 0.085000 41.649648 41.62752893 0 0 0 0 0 0 0 0 STD5.60
2026-02-12 00:22:32 16 17.80 0.080000 41.649648 41.62752893 0 0 0 0 0 0 0 0 STD5.60
2026-02-12 00:17:30 23 19.00 0.115000 41.649648 41.62752893 0 0 0 0 0 0 0 0 STD5.60
2026-02-12 00:12:28 21 20.20 0.105000 41.649648 41.62752893 0 0 0 0 0 0 0 0 STD5.60
2026-02-12 00:07:27 21 19.40 0.105000 41.649648 41.62752893 0 0 0 0 0 0 0 0 STD5.60
2026-02-12 00:02:25 11 16.70 0.055000 41.649648 41.62752893 0 0 0 0 0 0 0 0 STD5.60
2026-02-11 23:57:22 9 15.70 0.045000 41.649648 41.62752893 0 0 0 0 0 0 0 0 STD5.60
2026-02-11 23:52:20 14 17.70 0.070000 41.649648 41.62752893 0 0 0 0 0 0 0 0 STD5.60
2026-02-11 23:47:19 25 16.20 0.125000 41.649648 41.62752893 0 0 0 0 0 0 0 0 STD5.60
2026-02-11 23:42:16 13 15.70 0.065000 41.649648 41.62752893 0 0 0 0 0 0 0 0 STD5.60
2026-02-11 23:37:13 13 16.60 0.065000 41.649648 41.62752893 0 0 0 0 0 0 0 0 STD5.60
2026-02-11 23:32:11 14 16.70 0.070000 41.649648 41.62752893 0 0 0 0 0 0 0 0 STD5.60
2026-02-11 23:27:09 21 18.90 0.105000 41.649648 41.62752893 0 0 0 0 0 0 0 0 STD5.60
2026-02-11 23:22:07 21 18.70 0.105000 41.649648 41.62752893 0 0 0 0 0 0 0 0 STD5.60
2026-02-11 23:17:05 13 19.90 0.065000 41.649648 41.62752893 0 0 0 0 0 0 0 0 STD5.60
2026-02-11 23:12:02 22 19.10 0.110000 41.649648 41.62752893 0 0 0 0 0 0 0 0 STD5.60
2026-02-11 23:07:00 12 17.00 0.060000 41.649648 41.62752893 0 0 0 0 0 0 0 0 STD5.60
2026-02-11 23:01:59 20 18.20 0.100000 41.649648 41.62752893 0 0 0 0 0 0 0 0 STD5.60
2026-02-11 22:56:56 20 18.40 0.100000 41.649648 41.62752893 0 0 0 0 0 0 0 0 STD5.60
2026-02-11 22:51:54 25 17.40 0.125000 41.649648 41.62752893 0 0 0 0 0 0 0 0 STD5.60
2026-02-11 22:46:52 20 17.60 0.100000 41.649648 41.62752893 0 0 0 0 0 0 0 0 STD5.60
2026-02-11 22:41:50 15 17.90 0.075000 41.649648 41.62752893 0 0 0 0 0 0 0 0 STD5.60
2026-02-11 22:36:46 13 18.40 0.065000 41.649648 41.62752893 0 0 0 0 0 0 0 0 STD5.60
2026-02-11 22:31:45 13 18.70 0.065000 41.649648 41.62752893 0 0 0 0 0 0 0 0 STD5.60
2026-02-11 22:26:42 20 17.60 0.100000 41.649648 41.62752893 0 0 0 0 0 0 0 0 STD5.60
2026-02-11 22:21:40 18 17.50 0.090000 41.649648 41.62752893 0 0 0 0 0 0 0 0 STD5.60
2026-02-11 22:16:38 17 18.90 0.085000 41.649648 41.62752893 0 0 0 0 0 0 0 0 STD5.60
2026-02-11 22:11:36 23 17.40 0.115000 41.649648 41.62752893 0 0 0 0 0 0 0 0 STD5.60
2026-02-11 22:06:33 14 16.70 0.070000 41.649648 41.62752893 0 0 0 0 0 0 0 0 STD5.60
2026-02-11 22:01:31 14 18.80 0.070000 41.649648 41.62752893 0 0 0 0 0 0 0 0 STD5.60
2026-02-11 21:56:29 6 20.70 0.030000 41.649648 41.62752893 0 0 0 0 0 0 0 0 STD5.60
2026-02-11 21:51:27 23 19.70 0.115000 41.649648 41.62752893 0 0 0 0 0 0 0 0 STD5.60
2026-02-11 21:46:25 25 17.20 0.125000 41.649648 41.62752893 0 0 0 0 0 0 0 0 STD5.60
2026-02-11 21:41:23 19 16.00 0.095000 41.649648 41.62752893 0 0 0 0 0 0 0 0 STD5.60
2026-02-11 21:36:18 10 16.00 0.050000 41.649648 41.62752893 0 0 0 0 0 0 0 0 STD5.60
2026-02-11 21:31:16 13 17.80 0.065000 41.649648 41.62752893 0 0 0 0 0 0 0 0 STD5.60
2026-02-11 21:26:14 17 19.50 0.085000 41.649648 41.62752893 0 0 0 0 0 0 0 0 STD5.60
2026-02-11 21:21:12 16 17.70 0.080000 41.649648 41.62752893 0 0 0 0 0 0 0 0 STD5.60
2026-02-11 21:16:10 12 16.90 0.060000 41.649648 41.62752893 0 0 0 0 0 0 0 0 STD5.60
2026-02-11 21:11:08 12 17.30 0.060000 41.649648 41.62752893 0 0 0 0 0 0 0 0 STD5.60
2026-02-11 21:06:06 19 17.80 0.095000 41.649648 41.62752893 0 0 0 0 0 0 0 0 STD5.60
2026-02-11 21:01:04 24 18.90 0.120000 41.649648 41.62752893 0 0 0 0 0 0 0 0 STD5.60
2026-02-11 20:56:02 18 18.30 0.090000 41.649648 41.62752893 0 0 0 0 0 0 0 0 STD5.60
2026-02-11 20:51:00 14 17.50 0.070000 41.649648 41.62752893 0 0 0 0 0 0 0 0 STD5.60
2026-02-11 20:45:58 15 17.60 0.075000 41.649648 41.62752893 0 0 0 0 0 0 0 0 STD5.60
2026-02-11 20:40:56 17 18.00 0.085000 41.649648 41.62752893 0 0 0 0 0 0 0 0 STD5.60
2026-02-11 20:35:52 18 19.00 0.090000 41.649648 41.62752893 0 0 0 0 0 0 0 0 STD5.60
2026-02-11 20:30:50 24 18.80 0.120000 41.649648 41.62752893 0 0 0 0 0 0 0 0 STD5.60
2026-02-11 20:25:48 15 17.60 0.075000 41.649648 41.62752893 0 0 0 0 0 0 0 0 STD5.60
2026-02-11 20:20:46 16 17.00 0.080000 41.649648 41.62752893 0 0 0 0 0 0 0 0 STD5.60
2026-02-11 20:15:44 14 17.60 0.070000 41.649648 41.62752893 0 0 0 0 0 0 0 0 STD5.60
2026-02-11 20:10:42 18 19.50 0.090000 41.649648 41.62752893 0 0 0 0 0 0 0 0 STD5.60
2026-02-11 20:05:40 18 18.80 0.090000 41.649648 41.62752893 0 0 0 0 0 0 0 0 STD5.60
2026-02-11 20:00:38 12 18.10 0.060000 41.649648 41.62752893 0 0 0 0 0 0 0 0 STD5.60
2026-02-11 19:55:36 29 17.20 0.145000 41.649648 41.62752893 0 0 0 0 0 0 0 0 STD5.60
2026-02-11 19:50:34 18 15.00 0.090000 41.649648 41.62752893 0 0 0 0 0 0 0 0 STD5.60
2026-02-11 19:45:32 14 16.10 0.070000 41.649648 41.62752893 0 0 0 0 0 0 0 0 STD5.60
2026-02-11 19:40:30 17 17.10 0.085000 41.649648 41.62752893 0 0 0 0 0 0 0 0 STD5.60
2026-02-11 19:35:25 17 17.50 0.085000 41.649648 41.62752893 0 0 0 0 0 0 0 0 STD5.60
2026-02-11 19:30:22 27 19.90 0.135000 41.649648 41.62752893 0 0 0 0 0 0 0 0 STD5.60
2026-02-11 19:25:21 12 19.60 0.060000 41.649648 41.62752893 0 0 0 0 0 0 0 0 STD5.60
2026-02-11 19:20:18 20 16.10 0.100000 41.649648 41.62752893 0 0 0 0 0 0 0 0 STD5.60
2026-02-11 19:15:16 11 13.90 0.055000 41.649648 41.62752893 0 0 0 0 0 0 0 0 STD5.60
2026-02-11 19:10:13 10 16.00 0.050000 41.649648 41.62752893 0 0 0 0 0 0 0 0 STD5.60
2026-02-11 19:05:14 20 17.90 0.100000 41.649648 41.62752893 0 0 0 0 0 0 0 0 STD5.60
2026-02-11 19:00:09 12 17.80 0.060000 41.649648 41.62752893 0 0 0 0 0 0 0 0 STD5.60
2026-02-11 18:55:07 19 19.30 0.095000 41.649648 41.62752893 0 0 0 0 0 0 0 0 STD5.60
2026-02-11 18:50:05 25 18.50 0.125000 41.649648 41.62752893 0 0 0 0 0 0 0 0 STD5.60
2026-02-11 18:45:03 19 18.20 0.095000 41.649648 41.62752893 0 0 0 0 0 0 0 0 STD5.60
2026-02-11 18:40:01 19 18.00 0.095000 41.649648 41.62752893 0 0 0 0 0 0 0 0 STD5.60
2026-02-11 18:34:57 16 16.70 0.080000 41.649648 41.62752893 0 0 0 0 0 0 0 0 STD5.60
2026-02-11 18:29:56 13 18.40 0.065000 41.649648 41.62752893 0 0 0 0 0 0 0 0 STD5.60
2026-02-11 18:24:53 18 18.10 0.090000 41.649648 41.62752893 0 0 0 0 0 0 0 0 STD5.60
2026-02-11 18:19:51 14 18.00 0.070000 41.649648 41.62752893 0 0 0 0 0 0 0 0 STD5.60
2026-02-11 18:14:50 11 17.50 0.055000 41.649648 41.62752893 0 0 0 0 0 0 0 0 STD5.60
2026-02-11 18:09:47 11 16.60 0.055000 41.649648 41.62752893 0 0 0 0 0 0 0 0 STD5.60
2026-02-11 18:04:45 14 17.90 0.070000 41.649648 41.62752893 0 0 0 0 0 0 0 0 STD5.60
2026-02-11 17:59:43 17 18.80 0.085000 41.649648 41.62752893 0 0 0 0 0 0 0 0 STD5.60
2026-02-11 17:54:41 25 19.20 0.125000 41.649648 41.62752893 0 0 0 0 0 0 0 0 STD5.60
2026-02-11 17:49:39 14 20.90 0.070000 41.649648 41.62752893 0 0 0 0 0 0 0 0 STD5.60
2026-02-11 17:44:38 21 19.10 0.105000 41.649648 41.62752893 0 0 0 0 0 0 0 0 STD5.60
2026-02-11 17:39:35 14 17.20 0.070000 41.649648 41.62752893 0 0 0 0 0 0 0 0 STD5.60
2026-02-11 17:34:31 18 18.30 0.090000 41.649648 41.62752893 0 0 0 0 0 0 0 0 STD5.60
2026-02-11 17:29:30 21 18.20 0.105000 41.649648 41.62752893 0 0 0 0 0 0 0 0 STD5.60
2026-02-11 17:24:28 24 18.20 0.120000 41.649648 41.62752893 0 0 0 0 0 0 0 0 STD5.60
2026-02-11 17:19:25 19 18.70 0.095000 41.649648 41.62752893 0 0 0 0 0 0 0 0 STD5.60
2026-02-11 17:14:24 16 19.40 0.080000 41.649648 41.62752893 0 0 0 0 0 0 0 0 STD5.60
2026-02-11 17:09:21 22 19.70 0.110000 41.649648 41.62752893 0 0 0 0 0 0 0 0 STD5.60
2026-02-11 17:04:20 18 20.00 0.090000 41.649648 41.62752893 0 0 0 0 0 0 0 0 STD5.60
2026-02-11 16:59:17 20 19.90 0.100000 41.649648 41.62752893 0 0 0 0 0 0 0 0 STD5.60
2026-02-11 16:54:15 14 19.00 0.070000 41.649648 41.62752893 0 0 0 0 0 0 0 0 STD5.60
2026-02-11 16:49:13 18 19.50 0.090000 41.649648 41.62752893 0 0 0 0 0 0 0 0 STD5.60
2026-02-11 16:44:12 12 17.60 0.060000 41.649648 41.62752893 0 0 0 0 0 0 0 0 STD5.60
2026-02-11 16:39:09 16 15.90 0.080000 41.649648 41.62752893 0 0 0 0 0 0 0 0 STD5.60
2026-02-11 16:33:53 10 17.40 0.050000 41.649648 41.62752893 0 0 0 0 0 0 0 0 STD5.60
2026-02-11 16:28:51 16 17.40 0.080000 41.649648 41.62752893 0 0 0 0 0 0 0 0 STD5.60
2026-02-11 16:23:49 14 17.80 0.070000 41.649648 41.62752893 0 0 0 0 0 0 0 0 STD5.60
2026-02-11 16:18:47 11 16.70 0.055000 41.649648 41.62752893 0 0 0 0 0 0 0 0 STD5.60
2026-02-11 16:13:45 13 18.60 0.065000 41.649648 41.62752893 0 0 0 0 0 0 0 0 STD5.60
2026-02-11 16:08:43 20 21.40 0.100000 41.649648 41.62752893 0 0 0 0 0 0 0 0 STD5.60
2026-02-11 16:03:41 27 19.30 0.135000 41.649648 41.62752893 0 0 0 0 0 0 0 0 STD5.60
2026-02-11 15:58:39 19 18.00 0.095000 41.649648 41.62752893 0 0 0 0 0 0 0 0 STD5.60
2026-02-11 15:53:37 9 17.40 0.045000 41.649648 41.62752893 0 0 0 0 0 0 0 0 STD5.60
2026-02-11 15:48:35 18 17.60 0.090000 41.649648 41.62752893 0 0 0 0 0 0 0 0 STD5.60
2026-02-11 15:43:34 11 16.80 0.055000 41.649648 41.62752893 0 0 0 0 0 0 0 0 STD5.60
2026-02-11 15:38:32 16 18.30 0.080000 41.649648 41.62752893 0 0 0 0 0 0 0 0 STD5.60
2026-02-11 15:33:28 22 19.00 0.110000 41.649648 41.62752893 0 0 0 0 0 0 0 0 STD5.60
2026-02-11 15:28:26 20 17.80 0.100000 41.649648 41.62752893 0 0 0 0 0 0 0 0 STD5.60
2026-02-11 15:23:24 20 16.90 0.100000 41.649648 41.62752893 0 0 0 0 0 0 0 0 STD5.60
2026-02-11 15:18:22 15 16.40 0.075000 41.649648 41.62752893 0 0 0 0 0 0 0 0 STD5.60
2026-02-11 15:13:19 15 17.20 0.075000 41.649648 41.62752893 0 0 0 0 0 0 0 0 STD5.60
2026-02-11 15:08:17 17 16.50 0.085000 41.649648 41.62752893 0 0 0 0 0 0 0 0 STD5.60
2026-02-11 15:03:16 16 18.10 0.080000 41.649648 41.62752893 0 0 0 0 0 0 0 0 STD5.60
2026-02-11 14:58:13 21 20.70 0.105000 41.649648 41.62752893 0 0 0 0 0 0 0 0 STD5.60
2026-02-11 14:53:11 11 19.10 0.055000 41.649648 41.62752893 0 0 0 0 0 0 0 0 STD5.60
2026-02-11 14:48:09 14 16.40 0.070000 41.649648 41.62752893 0 0 0 0 0 0 0 0 STD5.60
2026-02-11 14:43:07 23 17.50 0.115000 41.649648 41.62752893 0 0 0 0 0 0 0 0 STD5.60
2026-02-11 14:38:05 14 17.90 0.070000 41.649648 41.62752893 0 0 0 0 0 0 0 0 STD5.60
2026-02-11 14:33:01 16 16.30 0.080000 41.649648 41.62752893 0 0 0 0 0 0 0 0 STD5.60
2026-02-11 14:27:59 10 17.40 0.050000 41.649648 41.62752893 0 0 0 0 0 0 0 0 STD5.60
2026-02-11 14:22:57 16 19.10 0.080000 41.649648 41.62752893 0 0 0 0 0 0 0 0 STD5.60
2026-02-11 14:17:55 14 18.50 0.070000 41.649648 41.62752893 0 0 0 0 0 0 0 0 STD5.60
2026-02-11 14:12:53 26 17.90 0.130000 41.649648 41.62752893 0 0 0 0 0 0 0 0 STD5.60
2026-02-11 14:07:51 21 18.20 0.105000 41.649648 41.62752893 0 0 0 0 0 0 0 0 STD5.60
2026-02-11 14:02:49 24 17.80 0.120000 41.649648 41.62752893 0 0 0 0 0 0 0 0 STD5.60
2026-02-11 13:57:46 21 15.70 0.105000 41.649648 41.62752893 0 0 0 0 0 0 0 0 STD5.60
2026-02-11 13:52:45 19 16.70 0.095000 41.649648 41.62752893 0 0 0 0 0 0 0 0 STD5.60
2026-02-11 13:47:42 26 20.20 0.130000 41.649648 41.62752893 0 0 0 0 0 0 0 0 STD5.60
2026-02-11 13:42:40 33 19.90 0.165000 41.649648 41.62752893 0 0 0 0 0 0 0 0 STD5.60
2026-02-11 13:37:38 23 19.50 0.115000 41.649648 41.62752893 0 0 0 0 0 0 0 0 STD5.60
2026-02-11 13:32:34 24 19.70 0.120000 41.649648 41.62752893 0 0 0 0 0 0 0 0 STD5.60
2026-02-11 13:27:32 14 17.10 0.070000 41.649648 41.62752893 0 0 0 0 0 0 0 0 STD5.60
2026-02-11 13:22:30 9 15.60 0.045000 41.649648 41.62752893 0 0 0 0 0 0 0 0 STD5.60
2026-02-11 13:17:28 21 17.30 0.105000 41.649648 41.62752893 0 0 0 0 0 0 0 0 STD5.60
Geiger Counter World Map       A real time radiation map.     Copyright 2015 All rights reserved.